User: anonymous   Login
Location: Caltech
(34.1382°N, 118.1253°W)
Time: 14:59:53
(UTC-08:00)
Language:

Cosmos 1408 Rocket - Orbit

View from above orbital plane
View from above orbital plane
View from above satellite
View from above satellite

Ground track
Ground track

The orbit data is extracted from the following two-line orbital elements,

1 13553U 82092B   15026.45782755  .00000305  00000-0  33757-4 0  1286
2 13553 082.5716 327.0231 0022626 051.8280 068.7539 14.83764276747608
Epoch (UTC): 26 January 2015 10:59:16
Eccentricity: 0.0022626
inclination: 82.5716°
perigee height: 601 km
apogee height: 633 km
right ascension of ascending node: 327.0231°
argument of perigee: 51.8280°
revolutions per day: 14.83764276
mean anomaly at epoch: 68.7539°
orbit number at epoch: 74760

The dashed part of the orbit path shows where the satellite is in the earth's shadow,  

DLR